Regional Weather Roundup
Issued by NWS

Home | Current Version | Previous Version | Graphics & Text | Print | Product List | Glossary On
Versions: 1 2 3 4 5 6 7 8 9 10 11 12 13 14 15 16 17 18 19 20 21 22 23 24 25 26 27 28 29 30 31 32 33 34 35 36 37 38 39 40 41 42 43 44 45 46 47 48 49 50
000
ASUS45 KCYS 191410
RWRWY

WYOMING REGIONAL WEATHER ROUNDUP
NATIONAL WEATHER SERVICE CHEYENNE WY
700 AM MST SUN NOV 19 2017

NOTE:  "FAIR" INDICATES FEW OR NO CLOUDS BELOW 12,000 FEET
WITH NO SIGNIFICANT WEATHER AND/OR OBSTRUCTIONS TO VISIBILITY.

WYZ001-191500-
YELLOWSTONE NATIONAL PARK

CITY           SKY/WX    TMP DP  RH WIND       PRES   REMARKS
LK YELLOWSTONE   N/A     13  11  92 CALM      30.19F
W YELLOWSTONE  NOT AVBL

$$
WYZ002>013-054>058-071-098>099-191500-
NORTHERN WYOMING

CITY           SKY/WX    TMP DP  RH WIND       PRES   REMARKS
JACKSON        CLOUDY    12   9  87 N3          N/A
CODY           FAIR      41   6  23 VRB6      30.00F
GREYBULL       FAIR      18  15  88 S3        30.06F
WORLAND        FAIR      15  13  91 CALM      30.05F
SHERIDAN       FAIR      20  16  84 CALM      29.95S
BUFFALO        FAIR      37  11  34 SW5       29.96F WCI  33
GILLETTE       FAIR      36  15  42 SW21      29.97F WCI  25
HULETT         FAIR      32  19  59 SW12      29.99S WCI  23
NEWCASTLE      FAIR      19  14  79 CALM      30.05F

$$
WYZ014>020-022>026-101>103-191500-
CENTRAL WYOMING

CITY           SKY/WX    TMP DP  RH WIND       PRES   REMARKS
BIG PINEY      FAIR       6   2  83 E3        30.24F
PINEDALE       FAIR       9   5  85 NW7       30.24F WCI  -3
DUBOIS         FAIR      30   3  31 NW21      30.08S WCI  17
LANDER         FAIR      21  14  74 NW5       30.08F WCI  15
RIVERTON       FAIR      21  13  71 E5        30.09F WCI  15
CASPER         FAIR      30  14  51 SW20      30.08S WCI  17
DOUGLAS        FAIR      26  17  68 NW5       30.06F WCI  20

$$
WYZ021-027>030-104>119-191500-
SOUTHERN WYOMING

CITY           SKY/WX    TMP DP  RH WIND       PRES   REMARKS
EVANSTON       FAIR      18  12  77 SE5       30.22F WCI  11
FORT BRIDGER   FAIR      13   8  82 CALM      30.26F
ROCK SPRINGS   FAIR      15   8  73 CALM      30.24S
DIXON          FAIR      13   6  74 SE6       30.32S WCI   4
RAWLINS        FAIR      19  10  68 E7        30.21S WCI  10
SARATOGA       FAIR      21   9  58 S13G21    30.24S WCI   9
LARAMIE        FAIR      24  11  57 SW15      30.15S WCI  11
CHEYENNE       FAIR      37  10  32 W16G25    30.11F WCI  28
TORRINGTON     FAIR      20  13  74 W5        30.08F WCI  13
PINE BLUFFS    FAIR      23  14  68 S10       30.12S WCI  12

$$



USA.gov is the U.S. government's official web portal to all federal, state and local government web resources and services.